[[{"header":{"parameterUnit":"m.s-1","parameterCategory":1,"la1":30.2991,"la2":30.254,"lo1":-89.0895,"lo2":-89.0444,"dy":0.0017,"dx":0.0017,"nx":28,"ny":28,"refTime":"2024-06-22T09:00:00:Z","depth":0,"parameterNumber":2,"parameterNumberName":"U-component_of_WINDS"},"data":[0,0,0,0,0,0,0,0,0,0,0,0,0,0,0,0,0,0,0,0,0,0,0,0,0,0,0,0,0,0,0,0,0,0,0,0,0,0,0,0,0,0,0,0,0,0,0,0,0,0,0,0,0,0,0,0,0,0,-0.2191,-0.219,0,-0.2123,-0.2123,-0.2122,-0.2082,-0.2081,-0.2081,-0.2081,-0.2013,-0.2012,-0.201,0,0,0,0,0,0,0,0,0,0,0,0,0,-0.2289,-0.2287,-0.2191,-0.219,-0.219,-0.2124,-0.2123,-0.2122,-0.2082,-0.2081,-0.2081,-0.2081,-0.2014,-0.2012,-0.201,0,0,0,0,0,0,0,0,0,0,0,0,0,-0.2236,-0.2287,-0.2191,-0.2162,-0.2158,-0.2124,-0.2123,-0.2121,-0.2082,-0.2081,-0.2081,-0.2081,-0.2015,-0.2012,-0.201,-0.2,0,0,-0.2002,-0.2001,0,0,0,0,0,0,0,0,-0.2239,-0.2233,-0.2167,-0.2164,-0.216,-0.2111,-0.2132,-0.2081,-0.2082,-0.2111,-0.2081,-0.2081,-0.2046,-0.2041,-0.2029,-0.1997,-0.1994,-0.2002,-0.2001,-0.2,-0.1999,0,0,0,0,0,0,0,-0.2243,-0.2235,-0.2164,-0.2166,-0.2162,-0.2152,-0.2145,-0.2122,-0.2081,-0.2108,-0.2105,-0.2098,-0.2044,-0.2032,-0.2027,-0.1993,-0.2002,-0.2,-0.1999,-0.1998,-0.1952,-0.1952,0,0,0,0,0,0,-0.2251,-0.2239,-0.2167,-0.2162,-0.22,-0.2151,-0.2142,-0.2127,-0.2081,-0.2074,-0.2098,-0.2096,-0.2036,-0.203,-0.2025,-0.2012,-0.2,-0.1997,-0.1996,-0.1952,-0.1952,-0.1952,0,0,0,0,0,0,-0.2253,-0.2245,-0.2169,-0.22,-0.2189,-0.215,-0.2132,-0.2126,-0.2113,-0.2073,-0.2066,-0.2092,-0.2035,-0.2028,-0.2007,-0.2009,-0.1996,-0.1994,-0.1952,-0.1952,-0.1952,-0.1985,0,0,0,0,0,0,-0.2256,-0.2246,-0.2241,-0.22,-0.2188,-0.2152,-0.2132,-0.2124,-0.2108,-0.2105,-0.2066,-0.2059,-0.2035,-0.2011,-0.2005,-0.2005,-0.1992,-0.1951,-0.1952,-0.1952,-0.1984,-0.1986,-0.1989,0,0,0,0,0,-0.226,-0.2253,-0.2241,-0.2233,-0.2181,-0.2152,-0.2146,-0.2117,-0.2109,-0.2104,-0.2079,-0.2061,-0.2009,-0.2009,-0.2002,-0.2001,-0.1951,-0.1952,-0.1952,-0.1982,-0.1986,-0.1989,0,0,0,0,0,0,-0.2297,-0.2247,-0.2233,-0.2213,-0.2187,-0.2145,-0.2139,-0.2121,-0.2097,-0.2095,-0.2061,-0.2053,-0.2035,-0.2016,-0.2016,-0.1991,-0.1978,-0.1977,-0.2004,-0.2007,-0.2009,-0.2014,-0.199,0,0,0,0,0,-0.2302,-0.2282,-0.224,-0.2227,-0.2214,-0.2179,-0.2165,-0.2145,-0.2117,-0.2106,-0.2079,-0.2054,-0.2032,-0.2018,-0.1996,-0.1981,-0.1972,-0.1977,-0.198,-0.1982,-0.1982,-0.1974,-0.1976,-0.1954,-0.1954,-0.1954,0,0,-0.2314,-0.2284,-0.2274,-0.2233,-0.2211,-0.2192,-0.217,-0.215,-0.2136,-0.2103,-0.2082,-0.2062,-0.2031,-0.2013,-0.2004,-0.1996,-0.1986,-0.1983,-0.1985,-0.1983,-0.1974,-0.1976,-0.1978,-0.1955,-0.1955,-0.1955,0,0,-0.2325,-0.2301,-0.2287,-0.2265,-0.2231,-0.2208,-0.2204,-0.2166,-0.2151,-0.2128,-0.2104,-0.2087,-0.205,-0.2029,-0.2014,-0.2019,-0.2001,-0.2012,-0.2026,-0.2019,-0.202,-0.2022,-0.2025,-0.2026,-0.2012,-0.2012,-0.2012,0,-0.2344,-0.2313,-0.2282,-0.2264,-0.2248,-0.2217,-0.2203,-0.2184,-0.2145,-0.2135,-0.2127,-0.208,-0.2057,-0.2035,-0.2036,-0.2024,-0.2021,-0.2017,-0.2023,-0.2024,-0.2024,-0.2027,-0.2028,-0.2014,-0.2014,-0.2014,-0.2013,0,-0.2339,-0.2318,-0.2311,-0.2274,-0.2257,-0.2241,-0.2209,-0.2195,-0.2177,-0.2155,-0.2134,-0.2105,-0.2077,-0.207,-0.2052,-0.2045,-0.2042,-0.2029,-0.2016,-0.2029,-0.203,-0.2031,-0.2016,-0.2016,-0.2015,-0.2015,0,0,-0.2371,-0.2317,-0.2315,-0.2298,-0.2259,-0.2243,-0.2227,-0.2199,-0.2188,-0.2163,-0.2149,-0.2119,-0.2107,-0.209,-0.2069,-0.2063,-0.207,-0.2051,-0.2049,-0.2056,-0.2062,-0.2073,-0.2074,-0.2058,-0.2058,-0.2058,-0.2065,0,-0.2378,-0.2346,-0.2317,-0.2296,-0.2278,-0.2249,-0.2235,-0.221,-0.2189,-0.2171,-0.2148,-0.2128,-0.2113,-0.2103,-0.2095,-0.2071,-0.2071,-0.207,-0.2046,-0.2046,-0.2055,-0.2075,-0.2085,-0.2093,-0.2065,-0.2065,-0.2066,0,-0.238,-0.2356,-0.2333,-0.2296,-0.2287,-0.2275,-0.2248,-0.2231,-0.2203,-0.2188,-0.2169,-0.2148,-0.2131,-0.212,-0.2096,-0.2096,-0.2085,-0.2072,-0.2071,-0.2068,-0.2057,-0.2073,-0.2095,-0.2097,-0.2066,-0.2066,-0.2066,0,-0.2407,-0.2369,-0.235,-0.2336,-0.2293,-0.2286,-0.2267,-0.2239,-0.2224,-0.2201,-0.2191,-0.2166,-0.2153,-0.2135,-0.2108,-0.2102,-0.2088,-0.2074,-0.2076,-0.2077,-0.2075,-0.2075,-0.2096,-0.2067,-0.2067,-0.2067,-0.2066,0,-0.2418,-0.2405,-0.2362,-0.235,-0.2336,-0.2304,-0.2291,-0.227,-0.2245,-0.2231,-0.2204,-0.2191,-0.2156,-0.2139,-0.2118,-0.2103,-0.2096,-0.2085,-0.208,-0.2088,-0.2089,-0.208,-0.2079,-0.2067,-0.2067,-0.2067,-0.2067,0,-0.2445,-0.2416,-0.2394,-0.2355,-0.2345,-0.2336,-0.2303,-0.2292,-0.227,-0.2251,-0.2245,-0.2211,-0.219,-0.2161,-0.2131,-0.2117,-0.2105,-0.2096,-0.2114,-0.2111,-0.2116,-0.2116,-0.2131,-0.2132,-0.2102,-0.2102,-0.2103,0,-0.2454,-0.2444,-0.2404,-0.2391,-0.2374,-0.2355,-0.234,-0.2309,-0.2294,-0.2262,-0.2255,-0.2232,-0.2211,-0.2179,-0.2152,-0.213,-0.2121,-0.2128,-0.2117,-0.2126,-0.2122,-0.2123,-0.2122,-0.213,-0.2131,-0.2131,-0.2132,0,-0.2473,-0.2459,-0.2438,-0.2412,-0.2395,-0.2373,-0.235,-0.2342,-0.2307,-0.2292,-0.227,-0.2254,-0.2224,-0.2201,-0.2175,-0.2158,-0.2139,-0.2135,-0.2135,-0.2143,-0.2155,-0.2149,-0.2122,-0.2135,-0.2135,-0.2134,-0.2134,-0.2134,-0.2492,-0.2482,-0.2453,-0.243,-0.241,-0.2389,-0.2377,-0.2354,-0.2334,-0.2307,-0.229,-0.2269,-0.2242,-0.2205,-0.2188,-0.2172,-0.2165,-0.2164,-0.2164,-0.2164,-0.2167,-0.2157,-0.2167,-0.2167,-0.2167,-0.2167,-0.2167,0,-0.2511,-0.2491,-0.247,-0.2439,-0.2422,-0.2405,-0.238,-0.2367,-0.2348,-0.2325,-0.2305,-0.2281,-0.2259,-0.2231,-0.2208,-0.22,-0.2191,-0.2195,-0.2196,-0.2193,-0.2175,-0.2178,-0.2203,-0.2203,-0.2203,-0.2203,-0.2203,-0.2203,-0.2519,-0.2501,-0.2483,-0.2456,-0.2436,-0.2414,-0.2401,-0.2383,-0.2364,-0.2337,-0.2319,-0.23,-0.2275,-0.225,-0.2231,-0.2223,-0.2216,-0.2223,-0.2213,-0.2197,-0.2194,-0.2191,-0.2193,-0.2221,-0.2221,-0.2232,-0.2232,-0.2232]},{"header":{"parameterUnit":"m.s-1","parameterCategory":1,"la1":30.2991,"la2":30.254,"lo1":-89.0895,"lo2":-89.0444,"dy":0.0017,"dx":0.0017,"nx":28,"ny":28,"refTime":"2024-06-22T09:00:00:Z","depth":0,"parameterNumber":3,"parameterNumberName":"V-component_of_WINDS"},"data":[0,0,0,0,0,0,0,0,0,0,0,0,0,0,0,0,0,0,0,0,0,0,0,0,0,0,0,0,0,0,0,0,0,0,0,0,0,0,0,0,0,0,0,0,0,0,0,0,0,0,0,0,0,0,0,0,0,0,4.6482,4.6482,0,4.6481,4.6481,4.6481,4.6433,4.6432,4.6431,4.643,4.6428,4.6429,4.643,0,0,0,0,0,0,0,0,0,0,0,0,0,4.6444,4.6445,4.6482,4.6482,4.6482,4.6481,4.6481,4.6481,4.6434,4.6432,4.6431,4.6429,4.6428,4.6429,4.643,0,0,0,0,0,0,0,0,0,0,0,0,0,4.6453,4.6445,4.6482,4.6458,4.6456,4.6481,4.6481,4.6481,4.6434,4.6432,4.643,4.6429,4.6427,4.6429,4.643,4.6477,0,0,4.6435,4.6436,0,0,0,0,0,0,0,0,4.6453,4.6455,4.6462,4.646,4.6458,4.6455,4.6466,4.6479,4.6434,4.6442,4.643,4.6428,4.6439,4.6439,4.6443,4.6477,4.6477,4.6436,4.6437,4.6437,4.6438,0,0,0,0,0,0,0,4.6452,4.6454,4.6481,4.6462,4.646,4.6448,4.6447,4.6469,4.6451,4.6442,4.6438,4.6439,4.6437,4.6441,4.6442,4.6477,4.6435,4.6437,4.6438,4.6439,4.655,4.6552,0,0,0,0,0,0,4.6455,4.6454,4.6481,4.6481,4.6451,4.645,4.6449,4.6458,4.645,4.6447,4.644,4.6436,4.644,4.6441,4.6442,4.6496,4.6437,4.6439,4.644,4.6548,4.655,4.6552,0,0,0,0,0,0,4.6454,4.6458,4.6481,4.6467,4.6469,4.6453,4.6463,4.6459,4.6463,4.6449,4.6446,4.6448,4.6438,4.644,4.6469,4.6496,4.6439,4.6441,4.6545,4.6548,4.6551,4.6606,0,0,0,0,0,0,4.6453,4.6458,4.6475,4.6468,4.647,4.6508,4.6464,4.646,4.6466,4.6461,4.6456,4.6453,4.6437,4.6467,4.6471,4.6497,4.6442,4.6543,4.6547,4.655,4.6601,4.661,4.6617,0,0,0,0,0,4.6452,4.649,4.6476,4.648,4.6492,4.651,4.6511,4.6492,4.6469,4.6486,4.6477,4.6453,4.6492,4.647,4.6474,4.6501,4.6541,4.6546,4.655,4.6598,4.6608,4.6617,0,0,0,0,0,0,4.6501,4.6489,4.6473,4.651,4.6512,4.6502,4.6523,4.6504,4.6512,4.6507,4.6482,4.6481,4.6514,4.6511,4.6486,4.6546,4.6512,4.6518,4.6547,4.6557,4.6565,4.6565,4.6444,0,0,0,0,0,4.6516,4.6533,4.6521,4.6555,4.6556,4.654,4.6547,4.6532,4.6533,4.6533,4.6526,4.6527,4.654,4.6548,4.6559,4.6601,4.6599,4.6621,4.663,4.6636,4.6641,4.6663,4.6673,4.6567,4.6567,4.6567,0,0,4.6548,4.6543,4.6555,4.6565,4.6564,4.6581,4.6541,4.656,4.6573,4.6536,4.6563,4.6558,4.6558,4.6593,4.6608,4.6591,4.667,4.6642,4.6647,4.6649,4.6669,4.6679,4.6688,4.657,4.6569,4.6569,0,0,4.6614,4.6612,4.664,4.6641,4.664,4.6629,4.6636,4.663,4.6625,4.6652,4.6625,4.6639,4.6661,4.6662,4.6665,4.6733,4.6711,4.6737,4.6779,4.6801,4.6809,4.6817,4.6841,4.685,4.6742,4.6742,4.6742,0,4.6653,4.6678,4.6657,4.6679,4.6684,4.6652,4.668,4.6681,4.6685,4.6689,4.6669,4.6697,4.6694,4.673,4.6746,4.675,4.6757,4.6737,4.681,4.6817,4.6823,4.6846,4.6855,4.6745,4.6745,4.6745,4.6744,0,4.6726,4.6744,4.6767,4.6771,4.6779,4.6804,4.6787,4.6797,4.6782,4.6773,4.6801,4.6797,4.6806,4.6814,4.6799,4.6847,4.6837,4.6814,4.6779,4.6837,4.6858,4.6866,4.675,4.6749,4.6748,4.6747,0,0,4.6823,4.6816,4.6825,4.6826,4.6824,4.6837,4.6861,4.687,4.688,4.6883,4.6902,4.6922,4.6901,4.6905,4.689,4.6909,4.6963,4.6884,4.6884,4.6899,4.7016,4.7033,4.7044,4.6949,4.695,4.6952,4.7017,0,4.6887,4.6927,4.6909,4.6951,4.6968,4.6937,4.6958,4.6959,4.6951,4.6964,4.6955,4.697,4.6941,4.6944,4.6961,4.6953,4.6986,4.6948,4.6966,4.6967,4.6967,4.7055,4.7073,4.7134,4.7025,4.7026,4.7027,0,4.6967,4.6974,4.7018,4.7013,4.7019,4.7038,4.7045,4.7058,4.7058,4.7051,4.7056,4.7037,4.706,4.7026,4.7057,4.7032,4.7038,4.7035,4.7037,4.7038,4.7001,4.7058,4.7153,4.7162,4.704,4.7039,4.7038,0,4.7033,4.7054,4.7082,4.7085,4.708,4.7094,4.7092,4.7091,4.7098,4.7104,4.7109,4.7118,4.7123,4.7131,4.7115,4.7091,4.7148,4.7113,4.7143,4.7144,4.7156,4.7156,4.7254,4.7161,4.7161,4.7161,4.716,0,4.7106,4.7134,4.7112,4.713,4.7161,4.714,4.7171,4.7166,4.7165,4.7181,4.7156,4.7171,4.7149,4.7163,4.715,4.7178,4.7181,4.7176,4.7172,4.7178,4.7179,4.7182,4.7177,4.7163,4.7162,4.7162,4.7162,0,4.7185,4.7171,4.7201,4.7194,4.7193,4.7216,4.721,4.7226,4.7217,4.7238,4.7241,4.7227,4.7242,4.7227,4.7241,4.7232,4.727,4.726,4.727,4.7267,4.7298,4.7296,4.7402,4.7415,4.7314,4.7315,4.7316,0,4.7233,4.7253,4.7249,4.7258,4.7258,4.7274,4.7281,4.7261,4.727,4.7272,4.7288,4.7301,4.731,4.7335,4.7326,4.7337,4.7327,4.7363,4.7328,4.7334,4.7327,4.7326,4.7328,4.7371,4.7372,4.7373,4.7374,0,4.7319,4.7311,4.7322,4.7332,4.7341,4.7348,4.7352,4.7361,4.7341,4.7352,4.7367,4.7375,4.7389,4.7402,4.741,4.7408,4.7388,4.7385,4.7392,4.7398,4.7403,4.7401,4.7289,4.7382,4.7381,4.7381,4.738,4.738,4.7383,4.74,4.74,4.7414,4.7415,4.742,4.7435,4.7428,4.7441,4.7451,4.7439,4.7457,4.7457,4.7466,4.7467,4.7481,4.7465,4.7476,4.7479,4.7482,4.7487,4.7401,4.7482,4.7482,4.7482,4.7482,4.7481,0,4.7468,4.7466,4.7479,4.7486,4.7497,4.7478,4.7482,4.7492,4.7509,4.7511,4.7521,4.7538,4.7551,4.7543,4.7554,4.7567,4.7558,4.757,4.7569,4.7569,4.75,4.7492,4.7577,4.7577,4.7577,4.7577,4.7577,4.7577,4.7513,4.7541,4.7534,4.7563,4.7561,4.7579,4.7583,4.7588,4.7589,4.761,4.762,4.7615,4.7613,4.7624,4.7635,4.7632,4.7637,4.7653,4.7647,4.7583,4.7574,4.7565,4.7557,4.7655,4.7655,4.7715,4.7716,4.7716]}]]